When you browse on this site, cookies collect data to enhance your experience and personalize the content and advertising you see.
Visit our Privacy Policy to learn more. By continuing to use the site, you agree to this use of cookies and data.
  • In United Kingdom
  • List of Countries
  • For 7 days
  • Water Temperature
  • Satellite Maps
  • Weather Map
  • Weather Widgets
  • user-avatar
    Login

    Hourly Weather Kankan

    Today, 19 January, Saturday

    Time Temperature Precipitation Wind Pressure Humidity
    00:00 +21°C° 0 mm 1 mps 685 mmHg 17%
    01:00 +19°C° 0 mm 0 mps 685 mmHg 18%
    02:00 +18°C° 0 mm 0 mps 685 mmHg 18%
    03:00 +18°C° 0 mm 0 mps 685 mmHg 19%
    04:00 +17°C° 0 mm 0 mps 685 mmHg 20%
    05:00 +17°C° 0 mm 0 mps 685 mmHg 20%
    06:00 +17°C° 0 mm 0 mps 685 mmHg 21%
    07:00 +19°C° 0 mm 1 mps 685 mmHg 21%
    08:00 +22°C° 0 mm 1 mps 686 mmHg 17%
    09:00 +26°C° 0 mm 1 mps 687 mmHg 14%
    10:00 +29°C° 0 mm 2 mps 688 mmHg 10%
    11:00 +31°C° 0 mm 2 mps 688 mmHg 9%
    12:00 +34°C° 0 mm 2 mps 688 mmHg 8%
    13:00 +36°C° 0 mm 2 mps 687 mmHg 7%
    14:00 +36°C° 0 mm 2 mps 687 mmHg 7%
    15:00 +36°C° 0 mm 2 mps 686 mmHg 7%
    16:00 +36°C° 0 mm 2 mps 685 mmHg 7%
    17:00 +33°C° 0 mm 1 mps 685 mmHg 8%
    18:00 +30°C° 0 mm 1 mps 685 mmHg 10%
    19:00 +27°C° 0 mm 1 mps 684 mmHg 11%
    20:00 +26°C° 0 mm 1 mps 685 mmHg 11%
    21:00 +25°C° 0 mm 1 mps 685 mmHg 12%
    22:00 +25°C° 0 mm 1 mps 686 mmHg 12%
    23:00 +24°C° 0 mm 1 mps 685 mmHg 13%

    Tomorrow, 20 January, Sunday

    Time Temperature Precipitation Wind Pressure Humidity
    00:00 +23°C° 0 mm 1 mps 685 mmHg 14%
    01:00 +23°C° 0 mm 1 mps 685 mmHg 15%
    02:00 +22°C° 0 mm 1 mps 685 mmHg 17%
    03:00 +22°C° 0 mm 1 mps 685 mmHg 18%
    04:00 +22°C° 0 mm 1 mps 684 mmHg 20%
    05:00 +22°C° 0 mm 1 mps 685 mmHg 22%
    06:00 +21°C° 0 mm 1 mps 685 mmHg 25%
    07:00 +21°C° 0 mm 1 mps 685 mmHg 27%
    08:00 +25°C° 0 mm 1 mps 686 mmHg 22%
    09:00 +29°C° 0 mm 1 mps 688 mmHg 18%
    10:00 +31°C° 0 mm 0 mps 689 mmHg 13%
    11:00 +35°C° 0 mm 1 mps 688 mmHg 12%
    12:00 +37°C° 0 mm 1 mps 688 mmHg 10%
    13:00 +39°C° 0 mm 1 mps 688 mmHg 9%
    14:00 +39°C° 0 mm 1 mps 687 mmHg 9%
    15:00 +37°C° 0 mm 1 mps 686 mmHg 9%
    16:00 +37°C° 0 mm 1 mps 685 mmHg 9%
    17:00 +34°C° 0 mm 1 mps 685 mmHg 11%
    18:00 +31°C° 0 mm 1 mps 685 mmHg 12%
    19:00 +29°C° 0 mm 1 mps 684 mmHg 14%
    20:00 +28°C° 0 mm 1 mps 685 mmHg 15%
    21:00 +27°C° 0 mm 1 mps 685 mmHg 16%
    22:00 +26°C° 0 mm 1 mps 686 mmHg 17%
    23:00 +25°C° 0 mm 1 mps 685 mmHg 19%

    Day after tomorrow, 21 January, Monday

    Time Temperature Precipitation Wind Pressure Humidity
    00:00 +25°C° 0 mm 1 mps 685 mmHg 21%
    01:00 +24°C° 0 mm 1 mps 685 mmHg 24%
    02:00 +24°C° 0 mm 1 mps 684 mmHg 27%
    03:00 +24°C° 0 mm 1 mps 684 mmHg 30%
    04:00 +23°C° 0 mm 1 mps 684 mmHg 33%
    05:00 +23°C° 0 mm 1 mps 684 mmHg 35%
    06:00 +23°C° 0 mm 1 mps 684 mmHg 38%
    07:00 +23°C° 0 mm 1 mps 684 mmHg 40%
    08:00 +26°C° 0 mm 1 mps 686 mmHg 35%
    09:00 +28°C° 0 mm 0 mps 687 mmHg 29%
    10:00 +32°C° 0 mm 0 mps 688 mmHg 23%
    11:00 +33°C° 0 mm 0 mps 688 mmHg 20%
    12:00 +37°C° 0 mm 1 mps 687 mmHg 18%
    13:00 +40°C° 0 mm 1 mps 687 mmHg 15%
    14:00 +39°C° 0 mm 1 mps 686 mmHg 16%
    15:00 +37°C° 0 mm 1 mps 685 mmHg 16%
    16:00 +36°C° 0 mm 1 mps 684 mmHg 17%
    17:00 +35°C° 0 mm 1 mps 685 mmHg 19%
    18:00 +33°C° 0 mm 1 mps 685 mmHg 21%
    19:00 +32°C° 0 mm 1 mps 685 mmHg 23%
    20:00 +30°C° 0 mm 1 mps 685 mmHg 27%
    21:00 +29°C° 0 mm 1 mps 685 mmHg 30%
    22:00 +28°C° 0 mm 1 mps 685 mmHg 34%
    23:00 +27°C° 0 mm 1 mps 685 mmHg 37%

    22 January, Tuesday

    Time Temperature Precipitation Wind Pressure Humidity
    00:00 +24°C° 0 mm 0 mps 684 mmHg 39%
    01:00 +23°C° 0 mm 0 mps 684 mmHg 42%
    02:00 +23°C° 0 mm 0 mps 684 mmHg 42%
    03:00 +23°C° 0 mm 0 mps 683 mmHg 43%
    04:00 +22°C° 0 mm 0 mps 683 mmHg 44%
    05:00 +22°C° 0 mm 0 mps 684 mmHg 43%
    06:00 +21°C° 0 mm 0 mps 684 mmHg 42%
    07:00 +21°C° 0 mm 0 mps 685 mmHg 42%
    08:00 +24°C° 0 mm 0 mps 686 mmHg 32%
    09:00 +28°C° 0 mm 0 mps 687 mmHg 23%
    10:00 +34°C° 0 mm 1 mps 688 mmHg 14%
    11:00 +35°C° 0 mm 1 mps 688 mmHg 12%
    12:00 +36°C° 0 mm 1 mps 687 mmHg 11%
    13:00 +37°C° 0 mm 1 mps 686 mmHg 9%
    14:00 +38°C° 0 mm 2 mps 686 mmHg 8%
    15:00 +38°C° 0 mm 2 mps 685 mmHg 8%
    16:00 +38°C° 0 mm 2 mps 684 mmHg 8%
    17:00 +34°C° 0 mm 1 mps 684 mmHg 9%
    18:00 +32°C° 0 mm 1 mps 684 mmHg 11%
    19:00 +29°C° 0 mm 1 mps 684 mmHg 12%
    20:00 +28°C° 0 mm 1 mps 684 mmHg 15%
    21:00 +28°C° 0 mm 1 mps 684 mmHg 18%
    22:00 +27°C° 0 mm 1 mps 684 mmHg 22%
    23:00 +26°C° 0 mm 1 mps 684 mmHg 26%

    23 January, Wednesday

    Time Temperature Precipitation Wind Pressure Humidity
    00:00 +26°C° 0 mm 1 mps 684 mmHg 31%
    01:00 +23°C° 0 mm 0 mps 684 mmHg 36%
    02:00 +23°C° 0 mm 0 mps 684 mmHg 37%
    03:00 +22°C° 0 mm 0 mps 683 mmHg 39%
    04:00 +22°C° 0 mm 0 mps 683 mmHg 40%
    05:00 +22°C° 0 mm 0 mps 684 mmHg 41%
    06:00 +24°C° 0 mm 1 mps 684 mmHg 41%
    07:00 +24°C° 0 mm 1 mps 684 mmHg 42%
    08:00 +27°C° 0 mm 1 mps 685 mmHg 37%
    09:00 +30°C° 0 mm 1 mps 686 mmHg 33%
    10:00 +33°C° 0 mm 1 mps 687 mmHg 28%
    11:00 +35°C° 0 mm 1 mps 687 mmHg 25%
    12:00 +37°C° 0 mm 1 mps 687 mmHg 22%
    13:00 +40°C° 0 mm 1 mps 686 mmHg 19%
    14:00 +39°C° 0 mm 1 mps 685 mmHg 20%
    15:00 +37°C° 0 mm 1 mps 684 mmHg 21%
    16:00 +36°C° 0 mm 1 mps 684 mmHg 22%
    17:00 +34°C° 0 mm 1 mps 684 mmHg 25%
    18:00 +33°C° 0 mm 1 mps 684 mmHg 27%
    19:00 +32°C° 0 mm 1 mps 684 mmHg 30%
    20:00 +31°C° 0 mm 1 mps 684 mmHg 31%
    21:00 +31°C° 0 mm 1 mps 684 mmHg 31%
    22:00 +28°C° 0 mm 0 mps 685 mmHg 32%
    23:00 +27°C° 0 mm 0 mps 685 mmHg 33%

    24 January, Thursday

    Time Temperature Precipitation Wind Pressure Humidity
    00:00 +27°C° 0 mm 0 mps 684 mmHg 34%
    01:00 +28°C° 0 mm 1 mps 684 mmHg 35%
    02:00 +28°C° 0 mm 1 mps 684 mmHg 35%
    03:00 +26°C° 0 mm 0 mps 684 mmHg 35%
    04:00 +25°C° 0 mm 0 mps 684 mmHg 35%
    05:00 +24°C° 0 mm 0 mps 684 mmHg 35%
    06:00 +23°C° 0 mm 0 mps 684 mmHg 35%
    07:00 +22°C° 0 mm 0 mps 684 mmHg 35%
    08:00 +27°C° 0 mm 1 mps 685 mmHg 28%
    09:00 +30°C° 0 mm 1 mps 686 mmHg 22%
    10:00 +33°C° 0 mm 1 mps 687 mmHg 15%
    11:00 +34°C° 0 mm 1 mps 686 mmHg 14%
    12:00 +36°C° 0 mm 1 mps 686 mmHg 12%
    13:00 +37°C° 0 mm 1 mps 686 mmHg 11%
    14:00 +37°C° 0 mm 1 mps 685 mmHg 11%
    15:00 +37°C° 0 mm 1 mps 684 mmHg 11%
    16:00 +37°C° 0 mm 1 mps 683 mmHg 11%
    17:00 +34°C° 0 mm 1 mps 683 mmHg 12%
    18:00 +32°C° 0 mm 1 mps 683 mmHg 14%
    19:00 +30°C° 0 mm 1 mps 683 mmHg 15%
    20:00 +28°C° 0 mm 1 mps 683 mmHg 16%
    21:00 +27°C° 0 mm 1 mps 684 mmHg 18%
    22:00 +24°C° 0 mm 0 mps 684 mmHg 19%
    23:00 +23°C° 0 mm 0 mps 684 mmHg 20%
    Show more